Regional Weather Roundup
Issued by NWS

Home | Current Version | Previous Version | Graphics & Text | Print | Product List | Glossary On
Versions: 1 2 3 4 5 6 7 8 9 10 11 12 13 14 15 16 17 18 19 20 21 22 23 24 25 26 27 28 29 30 31 32 33 34 35 36 37 38 39 40 41 42 43 44 45 46 47 48 49 50
327
ASUS43 KLOT 050908
RWRIL

ILLINOIS REGIONAL WEATHER ROUNDUP
NATIONAL WEATHER SERVICE CHICAGO/ROMEOVILLE IL
300 AM CST MON DEC 05 2016

NOTE: "FAIR" INDICATES FEW OR NO CLOUDS BELOW 12,000 FEET WITH NO
SIGNIFICANT WEATHER AND/OR OBSTRUCTIONS TO VISIBILITY.

* THESE STATIONS ARE NOT UNDER NWS QUALITY CONTROL. THEY ALSO MAY NOT
  REPORT WEATHER SUCH AS PRECIPITATION OR FOG.

ILZ001-002-007-009-015-016-024-051000-
NORTHWEST ILLINOIS

CITY           SKY/WX    TMP DP  RH WIND       PRES   REMARKS
MOLINE         CLOUDY    35  31  85 SW7       29.99R WCI  29
STERLING*      CLOUDY    34  32  92 W10       30.00R WCI  26
SAVANNA*       CLOUDY    34  32  92 SW8       29.98R WCI  27
$$

ILZ003-004-008-010-011-017-018-051000-
NORTH CENTRAL ILLINOIS

CITY           SKY/WX    TMP DP  RH WIND       PRES   REMARKS
ROCKFORD       CLOUDY    33  30  88 SW8G18    29.99R FOG     WCI  26
FREEPORT*      CLOUDY    32  31  96 W7        29.98R FOG     WCI  25
ROCHELLE*      CLOUDY    32  32  97 W12       29.99S WCI  23
DE KALB*       CLOUDY    32  31  96 W8        29.97S WCI  25
$$

ILZ005-006-012>014-019>023-051000-
NORTHEAST ILLINOIS

CITY           SKY/WX    TMP DP  RH WIND       PRES   REMARKS
CHICAGO-OHARE  CLOUDY    33  30  88 W9        29.98R WCI  25
CHICAGO-MIDWAY CLOUDY    34  29  82 W12       30.00R WCI  25
AURORA         CLOUDY    34  31  88 W12       29.98S WCI  25
LANSING*       CLOUDY    33  32  96 W8        30.01R WCI  26
JOLIET*        CLOUDY    34  33  93 W6        30.01S WCI  29
WAUKEGAN       CLOUDY    33  30  88 W8        29.94R WCI  26
DUPAGE AIRPORT CLOUDY    33  29  85 W14       29.98R WCI  23
KANKAKEE*      CLOUDY    33  32  98 W9        30.03F WCI  25
WHEELING       CLOUDY    33  30  88 W8        29.98R WCI  26
MORRIS*        CLOUDY    33  31  92 W8        30.01R WCI  26
ROMEOVILLE*    CLOUDY    33  33 100 W6        30.00S WCI  27
NORTHERLY ISL    N/A     34  30  86 W12         N/A  WCI  25
$$

LMZ740>746-051000-
SOUTHERN LAKE MICHIGAN

STATION/POSITION SKY/WX   TEMP    WIND        PRES    VSBY  WAVE
                          AIR SEA DIR/SP/G                  HT/PER
                          (F)     (DEG/KT/KT) (MB)    (MI)  (FT/S)
HARRISON CRIB              35     260/ 17/ 19   N/A
BURNHAM HARBOR             35     250/  9/ 14   N/A
CALUMET HARBOR             33     230/  9/ 14 1015.2R
BURNS HARBOR               36     240/ 17/ 23 1016.3R
$$

ILZ025>027-034>036-040-047-049-050-058-095>099-051000-
WEST-CENTRAL ILLINOIS

CITY           SKY/WX    TMP DP  RH WIND       PRES   REMARKS
QUINCY         FOG       33  33 100 W8        30.01R VSB 1/4 WCI  26
GALESBURG*     CLOUDY    32  32  99 CALM      30.00S
MACOMB*        CLOUDY    33  33  99 SW5       30.04R FOG     WCI  29
JACKSONVILLE*  FOG       33  33  99 S5        30.04R VSB 1/2 WCI  29
PITTSFIELD*    FOG       31  31  99 S5        30.04R VSB 1/2 WCI  27
$$

ILZ028>032-037-038-041>044-048-051>054-059>061-051000-
CENTRAL ILLINOIS

CITY           SKY/WX    TMP DP  RH WIND       PRES   REMARKS
PONTIAC        CLOUDY    34  34 100 W8        30.03S WCI  27
BLOOMINGTON    CLOUDY    32  31  96 W9        30.03R WCI  24
DECATUR        CLOUDY    33  30  88 W7        30.04F WCI  27
PEORIA         CLOUDY    33  32  96 W3        30.03S
LACON*         CLOUDY    32  32  97 W5        30.02S WCI  28
LINCOLN*       CLOUDY    34  33  97 CALM      30.03F
SPRINGFIELD    CLOUDY    35  33  92 S5        30.04R WCI  31
TAYLORVILLE    CLOUDY    33  32  96 S3        30.05S
$$

ILZ033-039-045-046-055>057-062-063-051000-
EAST-CENTRAL ILLINOIS

CITY           SKY/WX    TMP DP  RH WIND       PRES   REMARKS
CHAMPAIGN      CLOUDY    33  31  92 W10       30.04S WCI  25
RANTOUL*       CLOUDY    34  33  95 W10       30.05R WCI  26
MATTOON        CLOUDY    34  31  88 W8        30.05S WCI  27
PARIS*         CLOUDY    34  32  93 W7        30.07S WCI  28
$$

ILZ079-100>102-051000-
SOUTHWEST ILLINOIS

CITY           SKY/WX    TMP DP  RH WIND       PRES   REMARKS
ALTON          CLOUDY    32  32 100 SE3       30.07R
BELLEVILLE     CLOUDY    37  37  99 SE3       30.06R
CAHOKIA*       CLOUDY    35  31  85 S3        30.06S
SPARTA*        CLOUDY    37  33  87 CALM      30.08S
$$

ILZ064>066-069>071-074>076-080>082-084>086-088>090-092>094-051000-
SOUTH-CENTRAL ILLINOIS

CITY           SKY/WX    TMP DP  RH WIND       PRES   REMARKS
CARBONDALE     CLOUDY    39  34  82 CALM      30.09R
CAIRO*         CLOUDY    40  34  79 N6        30.09S
EFFINGHAM*     CLOUDY    35  34  96 W5        30.09S WCI  31
MARION         CLOUDY    39  39 100 CALM      30.09S
CENTRALIA*     CLOUDY    37  35  90 CALM      30.06F
SALEM*         CLOUDY    38  34  85 CALM      30.07S
METROPOLIS*    CLOUDY    41  35  80 CALM      30.09S
$$

ILZ067-068-072-073-078-083-087-091-051000-
SOUTHEAST ILLINOIS

CITY           SKY/WX    TMP DP  RH WIND       PRES   REMARKS
LAWRENCEVILLE  CLOUDY    36  31  82 NW7       30.09S WCI  30
FLORA*         CLOUDY    37  34  87 SW5       30.08F WCI  34
FAIRFIELD*     CLOUDY    37  33  85 CALM      30.08S
HARRISBURG*    CLOUDY    38  35  86 CALM      30.09S
ROBINSON*      CLOUDY    34  32  91 NW7       30.09F WCI  28
CARMI*         CLOUDY    37  35  90 N3        30.09R
$$

ABBREVIATIONS USED IN REMARKS
   TC - TEMPERATURE IN CELSIUS
  WCI - WIND CHILL INDEX
   HX - HEAT INDEX
  VSB - VISIBILITY
$$





USA.gov is the U.S. government's official web portal to all federal, state and local government web resources and services.